When you browse on this site, cookies collect data to enhance your experience and personalize the content and advertising you see.
Visit our Privacy Policy to learn more. By continuing to use the site, you agree to this use of cookies and data.
  • In Latvia
  • List of Countries
  • For 7 days
  • Water Temperature
  • Satellite Maps
  • Weather Map
  • Weather Widgets
  • user-avatar
    Login

    Hourly Weather Newport

    Today, 16 December, Sunday

    Time Temperature Precipitation Wind Pressure Humidity
    00:00 +5°C° 0 mm 8 mps 750 mmHg 84%
    01:00 +4°C° 0.1 mm 8 mps 750 mmHg 85%
    02:00 +4°C° 0.1 mm 7 mps 751 mmHg 87%
    03:00 +4°C° 0.1 mm 7 mps 751 mmHg 89%
    04:00 +4°C° 0.2 mm 7 mps 751 mmHg 89%
    05:00 +4°C° 0.2 mm 6 mps 751 mmHg 89%
    06:00 +4°C° 0.2 mm 6 mps 751 mmHg 90%
    07:00 +4°C° 0.2 mm 6 mps 751 mmHg 89%
    08:00 +5°C° 0.2 mm 5 mps 752 mmHg 89%
    09:00 +5°C° 0.2 mm 5 mps 752 mmHg 88%
    10:00 +6°C° 0.2 mm 5 mps 752 mmHg 86%
    11:00 +7°C° 0.2 mm 5 mps 752 mmHg 84%
    12:00 +9°C° 0.2 mm 6 mps 752 mmHg 81%
    13:00 +8°C° 0.5 mm 5 mps 751 mmHg 83%
    14:00 +8°C° 0.5 mm 5 mps 751 mmHg 86%
    15:00 +7°C° 0.5 mm 5 mps 751 mmHg 88%
    16:00 +7°C° 1.1 mm 5 mps 751 mmHg 90%
    17:00 +7°C° 1.1 mm 4 mps 751 mmHg 93%
    18:00 +6°C° 1.1 mm 4 mps 751 mmHg 95%
    19:00 +6°C° 1.5 mm 4 mps 751 mmHg 95%
    20:00 +6°C° 1.5 mm 4 mps 752 mmHg 96%
    21:00 +6°C° 1.5 mm 5 mps 752 mmHg 97%
    22:00 +4°C° 0.2 mm 6 mps 753 mmHg 95%
    23:00 +4°C° 0.2 mm 6 mps 754 mmHg 94%

    Tomorrow, 17 December, Monday

    Time Temperature Precipitation Wind Pressure Humidity
    00:00 +4°C° 0.2 mm 7 mps 755 mmHg 92%
    01:00 +3°C° 0 mm 7 mps 755 mmHg 92%
    02:00 +3°C° 0 mm 6 mps 756 mmHg 92%
    03:00 +2°C° 0 mm 6 mps 757 mmHg 91%
    04:00 +2°C° 0 mm 6 mps 757 mmHg 91%
    05:00 +2°C° 0 mm 5 mps 758 mmHg 91%
    06:00 +2°C° 0 mm 5 mps 759 mmHg 91%
    07:00 +3°C° 0 mm 5 mps 759 mmHg 91%
    08:00 +3°C° 0 mm 5 mps 760 mmHg 90%
    09:00 +4°C° 0 mm 4 mps 760 mmHg 90%
    10:00 +6°C° 0 mm 5 mps 761 mmHg 87%
    11:00 +7°C° 0 mm 5 mps 761 mmHg 83%
    12:00 +9°C° 0 mm 6 mps 761 mmHg 80%
    13:00 +9°C° 0 mm 6 mps 761 mmHg 82%
    14:00 +8°C° 0 mm 7 mps 761 mmHg 84%
    15:00 +8°C° 0 mm 7 mps 761 mmHg 86%
    16:00 +7°C° 0 mm 8 mps 760 mmHg 87%
    17:00 +7°C° 0 mm 8 mps 760 mmHg 88%
    18:00 +7°C° 0 mm 8 mps 760 mmHg 88%
    19:00 +7°C° 0.1 mm 9 mps 760 mmHg 88%
    20:00 +7°C° 0.1 mm 9 mps 760 mmHg 88%
    21:00 +8°C° 0.1 mm 9 mps 760 mmHg 88%
    22:00 +8°C° 0 mm 10 mps 759 mmHg 88%
    23:00 +8°C° 0 mm 10 mps 759 mmHg 89%

    Day after tomorrow, 18 December, Tuesday

    Time Temperature Precipitation Wind Pressure Humidity
    00:00 +8°C° 0 mm 10 mps 759 mmHg 89%
    01:00 +8°C° 0 mm 11 mps 758 mmHg 87%
    02:00 +8°C° 0 mm 11 mps 757 mmHg 86%
    03:00 +8°C° 0 mm 11 mps 757 mmHg 85%
    04:00 +8°C° 0 mm 11 mps 756 mmHg 84%
    05:00 +8°C° 0 mm 12 mps 756 mmHg 83%
    06:00 +8°C° 0 mm 12 mps 755 mmHg 82%
    07:00 +7°C° 0 mm 12 mps 754 mmHg 79%
    08:00 +7°C° 0 mm 13 mps 754 mmHg 77%
    09:00 +7°C° 0 mm 13 mps 753 mmHg 74%
    10:00 +7°C° 0.4 mm 13 mps 752 mmHg 75%
    11:00 +7°C° 0.4 mm 13 mps 751 mmHg 75%
    12:00 +6°C° 0.4 mm 14 mps 750 mmHg 75%
    13:00 +6°C° 1.3 mm 14 mps 750 mmHg 78%
    14:00 +6°C° 1.3 mm 14 mps 749 mmHg 81%
    15:00 +7°C° 1.3 mm 13 mps 748 mmHg 84%
    16:00 +7°C° 1.5 mm 12 mps 748 mmHg 86%
    17:00 +7°C° 1.5 mm 11 mps 748 mmHg 88%
    18:00 +8°C° 1.5 mm 10 mps 748 mmHg 90%
    19:00 +7°C° 0.5 mm 9 mps 748 mmHg 90%
    20:00 +6°C° 0.5 mm 7 mps 749 mmHg 90%
    21:00 +6°C° 0.5 mm 5 mps 749 mmHg 89%
    22:00 +6°C° 0.6 mm 5 mps 750 mmHg 91%
    23:00 +5°C° 0.6 mm 6 mps 751 mmHg 92%

    19 December, Wednesday

    Time Temperature Precipitation Wind Pressure Humidity
    00:00 +5°C° 0.6 mm 6 mps 751 mmHg 93%
    01:00 +5°C° 0.1 mm 6 mps 751 mmHg 91%
    02:00 +5°C° 0.1 mm 7 mps 752 mmHg 90%
    03:00 +4°C° 0.1 mm 7 mps 752 mmHg 88%
    04:00 +5°C° 0.3 mm 6 mps 752 mmHg 89%
    05:00 +5°C° 0.3 mm 6 mps 752 mmHg 89%
    06:00 +5°C° 0.3 mm 6 mps 752 mmHg 90%
    07:00 +5°C° 0.3 mm 5 mps 753 mmHg 89%
    08:00 +5°C° 0.3 mm 5 mps 753 mmHg 89%
    09:00 +5°C° 0.3 mm 4 mps 753 mmHg 89%
    10:00 +6°C° 0.1 mm 4 mps 754 mmHg 85%
    11:00 +7°C° 0.1 mm 4 mps 754 mmHg 82%
    12:00 +7°C° 0.1 mm 4 mps 754 mmHg 78%
    13:00 +7°C° 0 mm 4 mps 754 mmHg 79%
    14:00 +7°C° 0 mm 4 mps 754 mmHg 81%
    15:00 +7°C° 0 mm 5 mps 754 mmHg 82%
    16:00 +6°C° 0.1 mm 5 mps 755 mmHg 84%
    17:00 +5°C° 0.1 mm 5 mps 755 mmHg 86%
    18:00 +5°C° 0.1 mm 5 mps 755 mmHg 87%
    19:00 +5°C° 0 mm 5 mps 755 mmHg 86%
    20:00 +5°C° 0 mm 5 mps 756 mmHg 86%
    21:00 +4°C° 0 mm 6 mps 756 mmHg 85%
    22:00 +4°C° 0.2 mm 6 mps 756 mmHg 85%
    23:00 +3°C° 0.2 mm 6 mps 756 mmHg 86%

    20 December, Thursday

    Time Temperature Precipitation Wind Pressure Humidity
    00:00 +3°C° 0.2 mm 6 mps 756 mmHg 86%
    01:00 +3°C° 0 mm 6 mps 756 mmHg 87%
    02:00 +3°C° 0 mm 6 mps 756 mmHg 87%
    03:00 +3°C° 0 mm 7 mps 756 mmHg 88%
    04:00 +3°C° 0 mm 6 mps 756 mmHg 88%
    05:00 +3°C° 0 mm 6 mps 757 mmHg 88%
    06:00 +3°C° 0 mm 6 mps 757 mmHg 88%
    07:00 +3°C° 0.1 mm 7 mps 757 mmHg 87%
    08:00 +3°C° 0.1 mm 7 mps 757 mmHg 87%
    09:00 +4°C° 0.1 mm 7 mps 758 mmHg 86%
    10:00 +5°C° 0.3 mm 7 mps 758 mmHg 84%
    11:00 +6°C° 0.3 mm 7 mps 758 mmHg 81%
    12:00 +7°C° 0.3 mm 8 mps 758 mmHg 79%
    13:00 +6°C° 0.2 mm 8 mps 758 mmHg 80%
    14:00 +6°C° 0.2 mm 7 mps 758 mmHg 81%
    15:00 +6°C° 0.2 mm 7 mps 758 mmHg 82%
    16:00 +5°C° 0.1 mm 7 mps 758 mmHg 84%
    17:00 +5°C° 0.1 mm 6 mps 758 mmHg 85%
    18:00 +5°C° 0.1 mm 6 mps 758 mmHg 87%
    19:00 +4°C° 0 mm 6 mps 758 mmHg 88%
    20:00 +5°C° 0 mm 5 mps 758 mmHg 88%
    21:00 +3°C° 0 mm 5 mps 758 mmHg 89%
    22:00 +5°C° 0.1 mm 5 mps 758 mmHg 88%
    23:00 +5°C° 0.1 mm 4 mps 757 mmHg 87%

    21 December, Friday

    Time Temperature Precipitation Wind Pressure Humidity
    00:00 +5°C° 0.1 mm 4 mps 757 mmHg 86%
    01:00 +6°C° 1.1 mm 5 mps 756 mmHg 90%
    02:00 +7°C° 1.1 mm 6 mps 755 mmHg 94%
    03:00 +8°C° 1.1 mm 7 mps 754 mmHg 97%
    04:00 +9°C° 2.3 mm 8 mps 752 mmHg 96%
    05:00 +8°C° 2.3 mm 9 mps 751 mmHg 96%
    06:00 +9°C° 2.3 mm 10 mps 750 mmHg 95%
    07:00 +9°C° 1.4 mm 10 mps 749 mmHg 95%
    08:00 +11°C° 1.4 mm 9 mps 749 mmHg 95%
    09:00 +11°C° 1.4 mm 9 mps 748 mmHg 96%
    10:00 +11°C° 0 mm 10 mps 748 mmHg 92%
    11:00 +11°C° 0 mm 11 mps 749 mmHg 89%
    12:00 +9°C° 0 mm 11 mps 749 mmHg 85%
    13:00 +9°C° 0 mm 11 mps 750 mmHg 84%
    14:00 +8°C° 0 mm 10 mps 751 mmHg 82%
    15:00 +8°C° 0 mm 9 mps 752 mmHg 81%
    16:00 +7°C° 0 mm 9 mps 752 mmHg 84%
    17:00 +7°C° 0 mm 8 mps 753 mmHg 87%
    18:00 +6°C° 0 mm 7 mps 753 mmHg 89%
    19:00 +7°C° 0 mm 8 mps 753 mmHg 89%
    20:00 +7°C° 0 mm 9 mps 753 mmHg 89%
    21:00 +7°C° 0 mm 9 mps 753 mmHg 89%
    22:00 +8°C° 0 mm 9 mps 753 mmHg 89%
    23:00 +8°C° 0 mm 9 mps 753 mmHg 89%
    Show more